轨道通信卫星FM111星 (ORBCOMM FM111)

导读 | 星芒AI

ORBCOMM FM111 是一颗由 ORBCOMM 公司运营的低轨(LEO)卫星,主要用于提供全球范围的物联网(IoT)和机器对机器(M2M)通信服务。该卫星运行在约 500 公里的轨道高度,支持数据传输、远程监控和资产追踪等功能,广泛应用于物流、运输、能源等行业。FM111 是 ORBCOMM 卫星网络的一部分,旨在为客户提供可靠、低功耗的连接解决方案。

基本信息
目录编号:
40089
目录名称:
ORBCOMM FM 111
国际标识:
2014-040D
轨道中心:
EARTH
卫星名称:
轨道通信卫星FM111星
卫星全名:
轨道通信卫星FM111星 (ORBCOMM FM111)
卫星状态:
在轨 (已飞行4225 天)
发射日期:
2014-07-14 UTC
国别 :
(ORB)
星等 :
--
轨道信息
数据来源 国际轨道数据
星历时间: 2026-02-06T13:14:43+0800
8小时前
查看轨道信息
半长轴: 6981.859km
偏心率: 0.0028998
轨道倾角: 47.002°
近地点辐角 235.358°
升交点赤经 332.326°
平近点角 124.458°
近地点: 583.476km
远地点: 623.968km
周期: 96.765分钟
每日圈数: 14.881481
详细信息
固有亮度:
8
最大亮度:
6.7
平衡模式:
三轴稳定
覆盖范围:
全球
运营商:
轨道通信公司
运营商所在国:
美国
使用方式:
暂无
卫星简介
轨道通信FM(Orbcomm FM)是一系列低地球轨道通信卫星,由美国卫星通信公司 Orbcomm运营。 截至2015年12月,已有63颗此类卫星绕地球运行。该卫星已退役。
2D轨道图
3D轨道图
轨道高度分析图
轨道倾角分析图
轨道综合分析图
查看轨道综合分析图